Date,TemperatureHighF,TemperatureAvgF,TemperatureLowF,DewpointHighF,DewpointAvgF,DewpointLowF,HumidityHigh,HumidityAvg,HumidityLow,PressureMaxIn,PressureMinIn,WindSpeedMaxMPH,WindSpeedAvgMPH,GustSpeedMaxMPH,PrecipitationSumIn
2013-1-1,33.8,25.9,19.0,25.3,16.8,12.0,76,68,54,30.24,30.07,22,9,22,0.00
2013-1-2,37.9,25.9,12.9,17.4,11.1,4.1,71,54,37,30.32,30.21,14,6,14,0.00
2013-1-3,37.9,27.4,18.7,12.4,7.2,2.5,60,43,29,30.30,30.11,24,11,24,0.00
2013-1-4,46.4,31.1,23.9,17.8,11.3,4.5,63,44,30,30.14,30.07,14,6,14,0.00
2013-1-5,43.2,32.0,26.6,20.4,16.7,12.9,68,54,36,30.26,30.10,14,6,14,0.00
2013-1-6,44.8,34.7,26.4,21.4,13.8,9.5,72,43,26,30.09,29.88,20,6,20,0.00
2013-1-7,46.4,35.8,25.7,22.8,19.2,16.3,73,52,30,29.95,29.69,17,4,17,0.00
2013-1-8,50.4,40.9,31.3,24.1,18.1,7.2,60,41,19,30.03,29.71,24,8,24,0.00
2013-1-9,56.5,45.8,33.3,25.8,21.1,16.3,57,38,21,30.01,29.73,22,8,22,0.00
2013-1-10,55.8,35.1,18.1,30.4,21.3,11.8,82,59,26,29.74,29.56,14,6,14,0.00
2013-1-11,18.3,11.1,7.5,12.2,7.1,3.9,89,84,70,30.12,29.74,15,5,15,0.00
2013-1-12,19.4,9.4,0.7,7.7,4.1,-2.4,87,79,55,30.13,30.08,13,4,13,0.00
2013-1-13,22.6,10.9,3.9,9.0,2.9,-2.8,78,70,53,30.18,30.11,21,6,21,0.00
2013-1-14,19.8,13.7,7.9,7.7,2.9,0.4,75,62,46,30.15,30.00,20,11,20,0.00
2013-1-15,34.9,25.0,17.6,23.1,16.0,7.6,79,68,57,30.13,29.99,26,13,26,0.00
2013-1-16,52.2,37.0,26.8,24.6,19.7,16.3,69,50,29,30.31,30.08,24,9,24,0.00
2013-1-17,45.7,35.5,27.1,22.0,18.0,15.6,62,49,37,30.33,30.02,23,11,23,0.00
2013-1-18,59.5,43.2,35.1,19.2,15.3,1.4,47,34,10,30.05,29.91,18,8,18,0.00
2013-1-19,44.1,34.5,20.1,26.4,19.4,12.6,93,57,28,30.26,30.03,15,4,15,0.00
2013-1-20,36.0,22.6,14.5,20.8,15.1,9.5,82,73,51,30.43,30.11,15,4,15,0.00
2013-1-21,33.4,19.5,11.3,18.0,12.3,7.9,90,75,50,30.28,30.02,8,2,8,0.00
2013-1-22,49.3,34.3,13.6,17.5,14.5,10.2,90,47,24,30.08,30.01,13,5,13,0.00
2013-1-23,28.2,21.7,16.0,17.8,14.6,11.7,86,74,58,30.20,29.94,8,2,8,0.00
2013-1-24,55.4,37.1,18.5,26.2,20.0,14.2,85,53,29,30.11,29.88,26,4,26,0.00
2013-1-25,55.4,38.0,22.3,26.8,23.1,16.8,86,57,30,30.11,29.94,13,4,13,0.00
2013-1-26,68.2,45.0,33.6,28.8,24.9,20.7,69,48,17,29.95,29.72,14,3,14,0.00
2013-1-27,38.3,32.3,28.0,33.8,29.4,24.3,98,89,65,29.87,29.73,10,2,10,0.00
2013-1-28,43.3,30.7,24.6,28.9,20.3,9.3,98,69,28,29.89,29.75,14,3,14,0.04
2013-1-29,28.6,20.1,5.4,19.7,10.3,-0.6,80,66,48,30.17,29.73,17,5,17,0.00
2013-1-30,39.6,22.9,7.7,28.4,17.3,2.6,95,80,48,30.06,29.83,21,5,21,0.01
2013-1-31,29.7,15.5,0.9,24.1,10.6,-2.5,93,81,64,30.21,30.00,17,5,17,0.00